Welcome to the New NWS' Forecast!
Most changes are behind the scenes, but click here for differences you might notice.
Latest weather observations around

Duluth International Airport (KDLH)

Using International System of Units (Switch to English Units)
Date/ Time (CST) Wind (kph) Vis. (km) Weather Sky Cond. Temp (°C) Rel. Humidity Wind Chill (°C) Heat Index (°C) Pressure Precip. (cm)
Air Dwpt 6 hour Altimeter (hPa) Sea level (hPa) 1 hr 3 hr 6 hr
Max Min
Dec 09 13:55 WSW 15 12.87 Clear CLR -1 -6     69% -6   1022.4 1025      
Dec 09 12:55 WSW 17 12.87 Clear CLR -2 -7     71% -7   1022.7 1025.2      
Dec 09 11:55 W 9 9.66 Haze CLR -3 -7     74% -7   1023.4 1025.9      
Dec 09 10:55 W 13 8.05 Haze CLR -5 -8     81% -10   1023.7 1026.4      
Dec 09 09:55 W 17 4.83 Fog/Mist CLR -7 -9     84% -14   1024.1 1027      
Dec 09 08:55 WSW 13 4.02 Fog/Mist FEW004 -9 -11     87% -15   1024.4 1027.2      
Dec 09 08:27 W 13 4.02 Fog/Mist SCT004 -9 -11     87% -15   1024.4        
Dec 09 07:55 W 13 4.02 Fog/Mist CLR -9 -11     87% -15   1024.1 1027.1      
Dec 09 07:40 W 9 4.02 Fog/Mist SCT004 -9 -11     87% -14   1024.1        
Dec 09 07:14 W 13 4.83 Fog/Mist BKN003 -9 -11     87% -15   1024.1        
Dec 09 07:05 WSW 13 6.44 Fog/Mist SCT003 -8 -11     83% -14   1023.7        
Dec 09 06:55 SW 15 6.44 Fog/Mist CLR -9 -11     84% -15   1023.7 1026.6      
Dec 09 05:55 WSW 11 6.44 Fog/Mist CLR -10 -11     92% -16   1024.4 1027.4      
Dec 09 04:55 W 9 6.44 Fog/Mist FEW007 -8 -10     84% -12   1024.4 1027.5      
Dec 09 03:55 WSW 15 6.44 Fog/Mist SCT007 -7 -9     84% -13   1024.4 1027.2      
Dec 09 02:55 WSW 26 6.44 Fog/Mist OVC007 -6 -8     84% -14   1024.7 1027.5      
Dec 09 02:07 SW 24 6.44 Fog/Mist BKN008 -6 -8     84% -14   1024.7        
Dec 09 01:55 WSW 17 8.05 Fog/Mist SCT008 -6 -8     84% -12   1025.1 1027.8      
Dec 09 01:30 SW 17 6.44 Fog/Mist SCT008 -6 -8     84% -12   1025.1        
Dec 09 00:55 SW 18 8.05 Fog/Mist BKN008 -6 -8     84% -12   1025.1 1028.1      
Dec 08 23:55 WSW 17 8.05 Fog/Mist OVC008 -5 -7     85% -11   1025.7 1028.6      
Dec 08 22:55 WSW 24 8.05 Fog/Mist OVC006 -5 -7     85% -12   1025.7 1028.6      
Dec 08 22:23 WSW 22 8.05 Fog/Mist OVC007 -5 -7     85% -12   1025.7        
Dec 08 21:55 WSW 24 8.05 Fog/Mist OVC006 -5 -7     85% -12   1025.7 1028.7      
Dec 08 20:55 SW 21 6.44 Fog/Mist OVC005 -6 -8     84% -12   1026.1 1029.1      
Dec 08 19:55 WSW 22 8.05 Fog/Mist OVC007 -6 -8     84% -13   1026.4 1029.8      
Dec 08 18:55 SW 18 11.27 Cloudy OVC007 -7 -9     84% -13   1027.1 1030.4      
Dec 08 17:55 SW 26 11.27 Cloudy OVC007 -7 -9     84% -15   1027.4 1030.5      
Dec 08 16:55 SW 24 11.27 Cloudy OVC007 -7 -9     84% -15   1027.4 1030.9      
Dec 08 15:55 SW 18 9.66 Haze OVC007 -7 -10     80% -14   1027.8 1031.1      
Dec 08 14:55 SW 21 8.05 Haze OVC006 -7 -10     80% -14   1027.8 1031.1      
Dec 08 13:55 SW 18 9.66 Haze BKN008 -7 -11     77% -14   1027.8 1031.1      
Dec 08 13:41 SSW 22 6.44 Haze BKN007 -8 -11     77% -15   1028.1        
Dec 08 13:23 SW 13 4.02 Haze FEW007 -7 -10     80% -13   1028.1        
Dec 08 13:14 SW 21 4.02 Haze BKN007 -8 -11     80% -15   1028.5        
Dec 08 12:55 SW 17 4.02 Haze SCT007 -7 -10     80% -14   1028.5 1031.9      
Dec 08 12:43 SW 22 4.02 Haze SCT020 -8 -11     80% -15   1028.5        
Dec 08 11:55 SW 15 16.09 Clear CLR -5 -8     78% -11   1028.5 1031.7      
Dec 08 10:55 WSW 18 16.09 Clear   -6 -9     81% -13   1029.5 1032.7      
Dec 08 09:55 WSW 17 16.09 Clear CLR -8 -10     84% -14   1030.1 1033.7      
Dec 08 08:55 WSW 15 16.09 Clear CLR -9 -12     83% -16   1030.1 1033.7      
Dec 08 07:55 W 13 16.09 Clear CLR -13 -14     88% -20   1030.1 1033.6      
Dec 08 06:55 W 13 16.09 Clear CLR -12 -14     84% -18   1029.8 1033.3      
Dec 08 05:55 W 15 16.09 Clear CLR -11 -14     80% -18   1029.8 1033      
Dec 08 04:55 W 17 16.09 Clear CLR -12 -14     84% -19   1029.8 1032.9      
Dec 08 03:55 W 17 16.09 Clear CLR -13 -14     88% -21   1029.1 1032.6      
Dec 08 02:55 W 15 16.09 Clear CLR -13 -16     83% -21   1029.5 1032.8      
Dec 08 01:55 W 11 16.09 Clear CLR -12 -15     80% -18   1028.8 1032.1      
Dec 08 00:55 W 11 16.09 Clear CLR -14 -16     83% -20   1028.8 1032.2      
Dec 07 23:55 W 5 16.09 Clear CLR -12 -14     84% -16   1029.1 1032.6     0
Dec 07 22:55 W 8 16.09 Clear CLR -12 -14     84% -17   1028.8 1032.3      
Dec 07 21:55 NW 8 16.09 Clear CLR -13 -14     88% -18   1028.5 1032.1      
Dec 07 20:55 WNW 9 16.09 Clear CLR -12 -14     84% -18   1028.5 1032   0  
Dec 07 19:55 WNW 9 16.09 Clear CLR -9 -12     80% -14   1027.8 1031.3 0    
Dec 07 19:12 WNW 9 14.48 Partly Cloudy SCT025 -9 -12     77% -14   1027.4   0    
Dec 07 17:55 W 15 14.48 Light Snow OVC026 -7 -11     74% -13   1027.4 1030.7 0   0
Dec 07 16:55 W 17 14.48 Light Snow OVC027 -7 -11     71% -13   1026.8 1030.4 0    
Dec 07 15:55 W 15 12.87 Light Snow OVC025 -7 -11     71% -13   1026.4 1030 0    
Dec 07 15:03 W 21 11.27 Cloudy BKN020 OVC039 -7 -11     71% -14   1025.7        
Dec 07 14:55 W 17 11.27 Mostly Cloudy SCT022 BKN041 -7 -11     71% -13   1025.7 1029.3 0 0  
Dec 07 14:27 WNW 18 11.27 Light Snow SCT022 BKN041 -7 -11     71% -13   1025.7   0    
Dec 07 13:55 W 22 14.48 Light Snow BKN018 OVC041 -7 -11     71% -14   1026.1 1029.5 0    
Dec 07 13:36 W 21 12.87 Light Snow BKN019 OVC041 -7 -11     74% -14   1025.7   0    
Dec 07 12:55 W 17 9.66 Light Snow OVC040 -7 -11     74% -14   1026.1 1029.6 0    
Dec 07 11:55 W 18 4.83 Light Snow SCT033 OVC044 -8 -12     73% -15   1026.1 1029.8 0   0
Dec 07 11:08 W 18 4.83 Light Snow OVC045 -9 -13     76% -17   1026.1   0    
Dec 07 10:55 W 17 3.22 Light Snow OVC046 -9 -13     76% -16   1026.1 1030 0    
Dec 07 09:55 WSW 21 3.22 Light Snow SCT031 SCT035 OVC047 -11 -14     77% -19   1026.4 1030 0    
Dec 07 09:48 WSW 18 3.22 Light Snow SCT028 BKN034 OVC047 -11 -14     77% -18   1026.1   0    
Dec 07 08:55 WSW 17 11.27 Light Snow OVC046 -12 -15     80% -20   1025.7 1029.6 0 0  
Dec 07 07:55 WSW 15 9.66 Light Snow FEW033 OVC045 -13 -17     76% -21   1025.7 1029.5 0    
Dec 07 06:55 WSW 11 16.09 Light Snow OVC044 -14 -18     72% -20   1025.7 1029.6 0    
Dec 07 05:55 WSW 13 16.09 Cloudy OVC044 -14 -18     72% -22   1025.7 1029.4      
Dec 07 04:55 WSW 11 16.09 Cloudy OVC041 -16 -19     73% -22   1025.7 1029.4      
Dec 07 03:55 WSW 8 16.09 Mostly Cloudy BKN040 -17 -21     72% -22   1025.7 1029.6      
Dec 07 03:06 WSW 8 16.09 Partly Cloudy SCT021 -17 -21     69% -22   1026.1        
Dec 07 01:55 WSW 11 16.09 Cloudy OVC025 -16 -20     69% -22   1026.1 1029.7      
Dec 07 01:07 W 5 16.09 Mostly Cloudy BKN023 -17 -21     69% -21   1025.7        
Dec 07 00:55 W 8 16.09 Mostly Clear FEW023 -17 -22     65% -22   1026.1 1029.7      
Dec 06 23:55 NW 9 16.09 Clear CLR -17 -22     65% -24   1026.4 1030.3      
Dec 06 22:55 NW 9 16.09 Clear CLR -17 -22     65% -24   1026.8 1030.5      
Dec 06 21:55 NW 13 16.09 Clear CLR -17 -22     65% -24   1026.4 1030.1      
Dec 06 20:55 NW 13 16.09 Clear CLR -16 -21     63% -23   1026.1 1029.8      
Dec 06 19:55 NW 13 16.09 Clear CLR -15 -20     66% -22   1026.1 1029.8      
Dec 06 18:55 NW 11 16.09 Clear CLR -14 -19     66% -20   1026.1 1029.5      
Dec 06 17:55 WNW 8 16.09 Clear CLR -14 -19     66% -19   1026.1 1029.5      
Dec 06 16:55 WNW 8 16.09 Mostly Clear FEW030 -12 -18     58% -16   1025.7 1029      
Dec 06 15:55 NW 15 16.09 Mostly Clear FEW030 -11 -18     53% -17   1025.4 1028.6      
Dec 06 14:55 W 18 16.09 Mostly Clear FEW030 -10 -17     58% -17   1025.1 1028.2      
Dec 06 13:55 WNW 15 16.09 Partly Cloudy SCT023 -9 -17     55% -16   1025.1 1028.2      
Dec 06 12:55 NW 18 16.09 Partly Cloudy SCT023 -10 -16     61% -17   1024.7 1027.9      
Dec 06 11:55 NW 17 14.48 Mostly Cloudy BKN023 -9 -16     61% -16   1024.7 1027.6 0   0
Dec 06 10:55 WNW 18 12.87 Light Snow OVC023 -10 -16     64% -17   1025.1 1028.1 0    
Dec 06 09:55 NNW 13 14.48 Light Snow OVC022 -9 -15     64% -15   1024.4 1027.5 0    
Dec 06 08:55 NNW 15 14.48 Light Snow OVC028 -9 -15     64% -16   1023.7 1026.6 0 0  
Dec 06 07:55 NNW 15 8.05 Light Snow OVC027 -9 -15     61% -15   1023 1026 0    
Dec 06 06:55 NW 17 14.48 Light Snow OVC028 -9 -13     70% -16   1022 1025.2 0    
Dec 06 05:55 NW 17 12.87 Light Snow OVC025 -9 -13     73% -16   1021.3 1024.2 0   0
Dec 06 04:55 NW 15 14.48 Light Snow OVC023 -8 -13     67% -15   1020.3 1023.2 0    
Dec 06 03:55 NW 21 14.48 Light Snow OVC025 -8 -13     67% -16   1019.7 1022.6 0    
Dec 06 02:55 NW 18 14.48 Light Snow OVC027 -9 -13     70% -16   1019 1022 0 0  
Dec 06 01:55 NW 24 14.48 Light Snow OVC024 -9 -14     67% -17   1018.3 1021.3 0    
Dec 06 00:55 NW 26 14.48 Light Snow OVC020 -9 -14     67% -17   1018 1020.7 0    
Dec 05 23:55 NNW 22 14.48 Light Snow BKN015 OVC021 -8 -12     74% -15   1017.3 1020.1 0   0
Dec 05 22:55 WNW 18 9.66 Light Snow OVC026 -8 -11     77% -15   1016.6 1019.2 0    
Dec 05 22:41 WNW 17 9.66 Light Snow OVC028 -8 -12     76% -15   1016.3   0    
Dec 05 22:24 WNW 15 14.48 Light Snow SCT022 OVC030 -8 -12     76% -15   1016.3   0    
Dec 05 22:12 WNW 11 14.48 Light Snow BKN024 OVC032 -8 -12     76% -14   1016.3   0    
Dec 05 21:55 WNW 15 16.09 Cloudy SCT022 BKN031 OVC090 -8 -12     73% -15   1015.9 1018.8      
Dec 05 20:55 NW 22 16.09 Cloudy FEW021 OVC030 -8 -12     74% -15   1015.2 1018   0  
Dec 05 20:50 NW 17 16.09 Cloudy FEW021 OVC030 -8 -12     73% -15   1015.2        
Dec 05 20:18 NW 21 16.09 Mostly Cloudy BKN024 BKN037 -7 -12     70% -14   1015.2        
Dec 05 19:55 NW 18 16.09 Mostly Cloudy BKN035 -8 -12     71% -15   1014.9 1017.7 0    
Dec 05 18:55 NW 13 14.48 Light Snow OVC037 -7 -12     67% -13   1014.6 1017.4 0    
Dec 05 17:55 WNW 17 14.48 Light Snow OVC036 -7 -12     67% -14   1014.2 1016.8 0   0
Dec 05 16:55 WNW 22 14.48 Light Snow OVC032 -7 -12     65% -14   1013.6 1016.4 0    
Dec 05 15:55 WNW 18 14.48 Light Snow OVC032 -7 -12     65% -13   1012.9 1015.7 0    
Dec 05 14:55   14.48 Light Snow OVC032 -7 -12     65%     1012.5 1015.1 0 0  
Dec 05 13:55 NW 17 9.66 Light Snow SCT016 SCT023 OVC033 -6 -10     74% -12   1011.9 1014.5 0    
Dec 05 13:53 NW 15 9.66 Light Snow SCT016 BKN023 OVC033 -6 -10     73% -12   1011.9   0    
Dec 05 13:43 WNW 18 4.02 Light Snow BKN016 BKN021 OVC033 -6 -9     75% -12   1011.9   0    
Dec 05 13:31 WNW 21 2.82 Light Snow BKN016 OVC033 -6 -9     75% -12   1011.5   0    
Dec 05 13:23 NW 13 2.82 Light Snow SCT016 SCT023 OVC033 -6 -9     75% -11   1011.5   0    
Dec 05 13:07 NW 22 3.22 Light Snow FEW016 BKN026 OVC035 -6 -9     78% -13   1011.5   0    
Dec 05 12:55 WNW 17 1.21 Light Snow SCT016 BKN021 OVC026 -6 -9     78% -12   1011.2 1013.9 0    
Dec 05 12:44 NW 22 1.21 Light Snow BKN016 BKN022 OVC026 -5 -8     78% -12   1011.2   0    
Dec 05 12:34 WNW 18 4.02 Light Snow BKN016 OVC023 -5 -8     78% -11   1011.2   0    
Dec 05 12:24 WNW 13 1.21 Light Snow BKN022 OVC028 -5 -9     74% -10   1011.2   0    
Dec 05 11:55 WNW 17 2.01 Light Snow OVC022 -5 -9     71% -11   1011.2 1013.7 0   0
Dec 05 11:47 NW 17 2.82 Light Snow BKN021 OVC033 -4 -9     68% -10   1011.2   0    
Dec 05 11:40 NW 17 6.44 Light Snow BKN021 OVC032 -4 -9     68% -10   1011.2   0    
Dec 05 11:12 WNW 17 14.48 Light Snow OVC030 -4 -9     66% -10   1011.2   0    
Dec 05 10:55 NW 17 12.87 Light Snow OVC028 -4 -9     68% -10   1011.2 1013.6 0    
Dec 05 09:55 NW 17 11.27 Light Snow OVC018 -4 -8     77% -10   1011.5 1013.9 0    
Dec 05 08:55 WNW 11 4.83 Light Snow and Fog/Mist OVC022 -4 -7     84% -9   1011.5 1014 0 0  
Dec 05 08:44 WNW 11 6.44 Light Snow and Fog/Mist SCT009 OVC020 -4 -7     84% -9   1011.5   0    
Dec 05 07:55 W 13 8.05 Light Snow and Fog/Mist OVC006 -5 -7     88% -10   1011.2 1013.7 0    
Dec 05 06:55 W 13 9.66 Light Snow and Fog/Mist OVC006 -5 -7     85% -10   1011.2 1013.6 0    
Dec 05 05:55 WSW 13 8.05 Light Snow and Fog/Mist BKN008 OVC013 -6 -7     88% -11   1011.2 1013.8 0   0
Dec 05 05:46 WSW 11 8.05 Light Snow and Fog/Mist BKN008 OVC013 -6 -7     88% -10   1011.2   0    
Dec 05 04:55 WSW 15 8.05 Light Snow and Fog/Mist OVC010 -6 -8     84% -11   1011.5 1014.1 0    
Dec 05 04:22 WSW 15 8.05 Light Snow and Fog/Mist BKN011 OVC017 -6 -8     84% -11   1011.5   0    
Dec 05 03:55 WSW 17 11.27 Light Snow OVC017 -6 -8     84% -12   1011.5 1014.2 0    
Dec 05 03:04 WSW 15 12.87 Light Snow SCT015 BKN028 OVC060 -6 -8     84% -12   1011.9   0    
Dec 05 02:55 WSW 17 11.27 Light Snow SCT028 OVC060 -6 -8     84% -12   1012.2 1014.8 0 0  
Dec 05 02:11 WSW 15 4.83 Light Snow FEW014 OVC030 -6 -8     81% -11   1012.2   0    
Dec 05 01:55 WSW 13 8.05 Light Snow BKN014 OVC032 -6 -8     81% -11   1012.2 1015 0    
Dec 05 01:03 WSW 13 14.48 Light Snow OVC013 -6 -8     84% -11   1012.5   0    
Dec 05 00:55 WSW 13 14.48 Light Snow OVC015 -6 -8     84% -11   1012.5 1015.2 0    
Dec 05 00:32 WSW 15 14.48 Light Snow BKN018 OVC037 -6 -8     84% -12   1012.9   0    
Dec 04 23:55 WSW 22 14.48 Light Snow FEW009 OVC034 -6 -9     81% -13   1013.2 1015.8 0   0
Dec 04 23:34 WSW 21 14.48 Light Snow SCT010 OVC033 -6 -9     81% -13   1012.9   0    
Dec 04 23:24 WSW 17 14.48 Light Snow BKN010 OVC033 -6 -9     81% -12   1013.2   0    
Dec 04 22:55 WSW 21 14.48 Light Snow BKN009 OVC029 -6 -9     81% -13   1013.2 1016 0    
Dec 04 22:33 SW 22 14.48 Light Snow SCT009 OVC029 -6 -9     81% -13   1013.2   0    
Dec 04 21:55 WSW 18 14.48 Light Snow OVC008 -6 -8     84% -13   1013.9 1016.5 0    
Dec 04 20:55 WSW 18 14.48 Light Snow OVC007 -7 -8     88% -13   1014.2 1017 0 0  
Dec 04 19:55 SW 15 14.48 Light Snow OVC008 -7 -9     84% -13   1014.6 1017.3 0    
Dec 04 18:55 WSW 15 14.48 Light Snow OVC007 -7 -8     88% -13   1014.9 1017.7 0    
Dec 04 17:55 WSW 17 14.48 Light Snow OVC006 -6 -8     84% -12   1015.2 1018 0   0
Dec 04 16:55 WSW 17 14.48 Light Snow OVC006 -6 -8     84% -12   1015.6 1018.4 0    
Dec 04 15:55 WSW 11 14.48 Light Snow OVC006 -6 -8     88% -11   1015.9 1018.8 0    
Dec 04 14:55 WSW 15 14.48 Light Snow OVC007 -7 -8     88% -13   1016.3 1019 0 0  
Dec 04 13:55 W 15 12.87 Light Snow OVC007 -7 -8     88% -13   1016.6 1019.4 0    
Dec 04 12:55 WSW 13 16.09 Cloudy OVC006 -7 -8     88% -12   1017.3 1020      
Dec 04 11:55 WSW 17 16.09 Cloudy OVC006 -7 -8     88% -13   1018 1021     0
Dec 04 10:55 WSW 18 16.09 Cloudy OVC006 -7 -9     88% -14   1019 1021.9 0    
Dec 04 09:55 W 17 11.27 Light Snow OVC006 -7 -8     92% -14   1019.7 1022.7 0    
Dec 04 08:55 W 17 16.09 Cloudy OVC005 -8 -9     88% -14   1019.7 1023      
Dec 04 07:55 W 11 16.09 Cloudy OVC005 -8 -9     88% -13   1019.7 1022.8      
Dec 04 06:55 W 15 16.09 Cloudy OVC005 -8 -9     88% -14   1020 1023      
Dec 04 06:15 W 21 16.09 Cloudy OVC005 -8 -9     88% -15   1020.3        
Dec 04 06:04 W 13 16.09 Cloudy OVC004 -8 -9     88% -13   1020.3        
Dec 04 05:55 W 21 16.09 Cloudy OVC005 -8 -9     88% -15   1020.3 1023.4      
Dec 04 05:37 W 22 16.09 Cloudy OVC005 -8 -9     88% -15   1020.3        
Dec 04 05:19 W 15 16.09 Cloudy OVC004 -8 -9     88% -14   1020.7        
Dec 04 04:55 W 17 16.09 Cloudy OVC005 -8 -9     88% -14   1020.7 1023.5      
Dec 04 04:34 W 18 16.09 Cloudy OVC005 -8 -9     88% -15   1020.7        
Dec 04 03:55 W 18 16.09 Cloudy OVC004 -8 -9     88% -15   1021 1023.7      
Dec 04 02:55 WNW 17 16.09 Cloudy OVC004 -8 -9     88% -14   1021.7 1024.3      
Dec 04 01:55 W 21 16.09 Cloudy OVC004 -8 -10     84% -15   1021.3 1024.2      
Dec 04 00:55 W 21 16.09 Cloudy OVC004 -8 -10     88% -16   1021.7 1024.4      
Dec 04 00:25 WNW 15 16.09 Cloudy OVC004 -8 -10     88% -15   1021.7        
Dec 03 23:55 WNW 9 16.09 Cloudy OVC005 -8 -10     88% -13   1022 1024.8      
Dec 03 23:30 WNW 9 16.09 Cloudy OVC005 -9 -11     87% -14   1022        
Dec 03 22:55 WNW 15 16.09 Mostly Cloudy BKN003 -9 -11     84% -15   1022.4 1025.2      
Dec 03 22:48 NW 15 16.09 Partly Cloudy SCT003 -9 -12     83% -16   1022.4        
Dec 03 21:55 WNW 11 16.09 Clear CLR -11 -13     84% -16   1022 1025.1      
Dec 03 20:55 WNW 9 16.09 Clear CLR -12 -14     84% -18   1022.4 1025.4      
Dec 03 19:55 NW 5 16.09 Clear CLR -9 -11     84% -12   1022.4 1025.4      
Dec 03 18:55 NW 8 16.09 Clear CLR -9 -12     80% -13   1022.7 1025.5      
Dec 03 17:55 NW 8 16.09 Clear CLR -8 -11     80% -12   1022.4 1025.2      
Dec 03 16:55 NW 8 16.09 Clear CLR -6 -10     71% -9   1022.4 1024.9      
Dec 03 15:55 NW 8 16.09 Mostly Clear FEW015 -4 -9     68% -8   1022 1024.6      
Dec 03 14:55 WNW 11 16.09 Mostly Clear FEW015 -3 -9     65% -8   1021.7 1024.3      
Dec 03 13:55 NW 5 16.09 Mostly Clear FEW014 -3 -9     65% -6   1021.7 1024.2      
Dec 03 12:55 N 11 16.09 Partly Cloudy SCT014 -3 -8     71% -8   1021.7 1024.3      
Dec 03 12:47 NW 13 16.09 Partly Cloudy SCT014 -4 -8     71% -9   1021.7        
Dec 03 11:55 NNW 18 16.09 Cloudy OVC014 -5 -9     74% -11   1022 1024.7      
Dec 03 10:55 NNW 17 16.09 Cloudy OVC013 -6 -9     75% -12   1022.4 1025      
Dec 03 09:55 NNE 13 16.09 Cloudy OVC012 -6 -9     77% -11   1022.4 1024.8      
Dec 03 08:55 NNE 13 16.09 Cloudy OVC013 -6 -9     77% -11   1021.7 1024.3      
Dec 03 07:55 NE 15 16.09 Cloudy OVC011 -6 -9     77% -12   1021.3 1023.7      
Dec 03 06:55 NNW 9 16.09 Cloudy OVC012 -6 -9     78% -10   1020.7 1023.1      
Dec 03 05:55 NNE 13 16.09 Cloudy OVC013 -6 -9     78% -11   1020 1022.4      
Dec 03 05:25 N 9 16.09 Cloudy OVC014 -5 -8     78% -9   1019.7        
Dec 03 04:55 NNE 13 16.09 Cloudy OVC015 -5 -9     74% -10   1019.3 1021.7      
Dec 03 03:55 N 11 16.09 Cloudy OVC016 -5 -9     74% -10   1018.6 1021.2      
Dec 03 02:55 NNE 9 16.09 Cloudy OVC017 -4 -9     71% -8   1018.6 1020.9      
Dec 03 01:55 NNE 17 16.09 Cloudy OVC016 -4 -9     71% -10   1018 1020.4      
Dec 03 00:55 NNE 17 16.09 Cloudy OVC018 -4 -9     71% -10   1017.3 1019.6      
Dec 02 23:55 N 18 16.09 Cloudy OVC017 -4 -8     71% -10   1016.9 1019.1      
Dec 02 22:55 NNE 18 16.09 Cloudy OVC019 -3 -8     68% -9   1016.3 1018.6      
Dec 02 21:55 NNE 17 16.09 Cloudy OVC021 -3 -8     71% -9   1015.6 1018      
Dec 02 20:55 NNE 17 16.09 Cloudy OVC020 -3 -8     68% -9   1015.2 1017.4      
Dec 02 19:55 NNE 13 16.09 Cloudy OVC019 -3 -8     71% -8   1014.6 1016.7      
Dec 02 18:55 NNE 17 16.09 Cloudy OVC021 -3 -8     71% -9   1013.6 1015.9      
Dec 02 17:55 NNE 18 16.09 Cloudy OVC022 -3 -7     72% -8   1012.9 1015.3 0   0
Dec 02 16:55 NNE 21 14.48 Light Snow OVC019 -3 -7     72% -9   1012.2 1014.4 0    
Dec 02 15:55 NNE 21 14.48 Light Snow OVC021 -2 -7     71% -8   1011.2 1013.5 0    
Dec 02 14:55 NNE 21 12.87 Light Snow OVC017 -2 -6     75% -8   1010.5 1012.5 0 0  
Dec 02 13:55 N 24 16.09 Cloudy OVC019 -2 -6     75% -9   1009.5 1011.6      
Dec 02 12:55 NNE 22 16.09 Cloudy OVC023 -2 -6     75% -8   1008.8 1011      
Dec 02 11:55 NNE 24 16.09 Cloudy OVC019 -2 -6     75% -9   1008.8 1010.9      
Dec 02 10:55 NE 21 16.09 Cloudy OVC016 -2 -6     75% -8   1008.8 1011      
Dec 02 09:55 NNE 24 16.09 Cloudy OVC016 -2 -6     75% -9   1008.8 1010.9      
Dec 02 08:55 NNE 21 16.09 Cloudy OVC016 -2 -6     78% -8   1008.5 1010.6      
Dec 02 07:55 NNE 26 16.09 Cloudy OVC015 -3 -6     78% -10   1008.5 1010.5      
Dec 02 07:38 NNE 22 16.09 Cloudy OVC016 -3 -6     78% -9   1008.5        
Dec 02 06:55 NNE 22 16.09 Cloudy OVC014 -3 -6     78% -9   1008.5 1010.5      
Dec 02 06:41 NE 24 16.09 Cloudy OVC014 -3 -6     78% -9   1008.5        
Dec 02 06:07 NE 22 16.09 Cloudy OVC015 -3 -7     77% -10   1008.1        
Dec 02 05:55 NE 26 16.09 Cloudy OVC013 -3 -7     77% -10   1008.1 1010.3      
Dec 02 04:55 NE 21 16.09 Cloudy OVC013 -3 -7     77% -9   1008.1 1010.1      
Dec 02 03:55 NE 26 16.09 Cloudy OVC012 -3 -7     77% -10   1007.8 1009.9      
Dec 02 03:32 NE 32 16.09 Cloudy and Windy OVC010 -3 -6     81% -11   1007.5        
Dec 02 03:21 NE 33 16.09 Cloudy and Windy OVC009 -3 -6     81% -11   1007.8        
Dec 02 02:55 NE 30 16.09 Cloudy OVC010 -3 -6     81% -11   1007.8 1010      
Dec 02 02:40 NE 22 16.09 Cloudy OVC010 -3 -6     81% -10   1008.1        
Dec 02 01:55 NE 24 16.09 Cloudy OVC008 -3 -6     84% -10   1008.1 1010.2      
Dec 02 00:55 NNE 24 16.09 Cloudy OVC006 -3 -6     84% -10   1008.1 1010.3      
Dec 01 23:55 NE 32 16.09 Cloudy and Windy OVC005 -3 -5     88% -11   1008.1 1010.4      
Dec 01 23:40 NE 28 16.09 Cloudy OVC005 -3 -5     88% -10   1008.5        
Dec 01 22:55 NE 28 16.09 Cloudy OVC004 -3 -4     92% -10   1008.5 1010.7      
Dec 01 21:55 NE 35 11.27 Cloudy and Windy OVC003 -3 -4     92% -11   1008.8 1011      
Dec 01 20:55 NE 28 9.66 Fog/Mist OVC003 -3 -4     89% -10   1009.2 1011.3      
Dec 01 19:55 ENE 30 14.48 Cloudy OVC004 -3 -4     89% -10   1009.5 1011.7      
Dec 01 18:55 ENE 32 14.48 Cloudy and Windy OVC004 -2 -4     88% -10   1010.2 1012.2      
Dec 01 18:33 ENE 35 16.09 Cloudy and Windy OVC004 -2 -4     85% -9   1010.2        
Dec 01 17:55   16.09 Cloudy OVC005 -1 -3     85%     1009.8 1012     0
Dec 01 16:55 E 37 16.09 Cloudy and Windy OVC006 -1 -3     85% -9   1010.2 1012.1      
Dec 01 15:55 E 33 16.09 Cloudy and Windy OVC005 -1 -3     88% -8   1011.2 1013.1      
Dec 01 14:55 ENE 35 16.09 Cloudy and Windy OVC005 -1 -3     85% -8   1010.2 1012.1   0  
Dec 01 13:55 ENE 30 16.09 Cloudy OVC006 -1 -3     85% -8   1010.5 1012.5      
Dec 01 12:55 ENE 35 16.09 Cloudy and Windy OVC006 -1 -3     85% -8   1011.5 1013.5 0    
Dec 01 12:05 E 32 8.05 Light Snow and Fog/Mist OVC006 -1 -2     89% -7   1012.2   0    
Dec 01 11:55 E 28 2.41 Light Snow and Fog/Mist OVC006 -1 -2     89% -7   1012.2 1014.2 0   0
Dec 01 11:17 E 30 2.41 Light Snow and Fog/Mist BKN009 OVC015 0 -2     85% -6   1012.5   0    
Dec 01 10:55 E 28 1.21 Light Snow and Fog/Mist OVC005 0 -2     88% -6   1012.9 1014.8 0    
Dec 01 10:40 ENE 24 1.21 Light Snow and Fog/Mist OVC005 0 -2     88% -6   1012.9   0    
Dec 01 09:55 E 22 16.09 Cloudy OVC005 -1 -2     89% -6   1013.2 1015.2      
Dec 01 08:55 ENE 18 16.09 Cloudy OVC006 -1 -2     89% -6   1013.6 1015.6      
Dec 01 07:55 E 17 16.09 Cloudy OVC006 -1 -2     92% -6   1014.6 1016.7      
Dec 01 06:55 ENE 17 16.09 Cloudy OVC006 -1 -3     88% -6   1014.9 1016.9      
Dec 01 05:55 ENE 15 16.09 Cloudy OVC005 -1 -3     88% -6   1015.2 1017.3      
Dec 01 05:35 ENE 17 16.09 Cloudy OVC005 -1 -3     88% -6   1015.6        
Dec 01 05:15 ENE 17 16.09 Cloudy OVC004 -1 -3     88% -6   1015.6        
Dec 01 04:55 E 15 3.22 Fog/Mist OVC004 -1 -3     88% -6   1015.6 1017.7      
Dec 01 04:31 ENE 13 3.22 Fog/Mist OVC003 -1 -3     88% -5   1015.6        
Dec 01 03:55 ENE 15 0.8 Fog OVC002 -1 -3     88% -6   1014.9 1017      
Dec 01 02:55 ENE 9 0.8 Fog VV002 -2 -3     92% -5   1015.6 1017.7      
Dec 01 01:55 E 13 0.8 Fog VV002 -2 -3     89% -6   1014.6 1016.6      
Dec 01 01:45 ENE 15 0.8 Fog VV002 -2 -3     89% -6   1014.2        
Dec 01 01:39 ENE 15 0.4 Fog VV002 -2 -3     89% -6   1014.6        
Dec 01 00:55 ENE 15 0.8 Fog VV002 -2 -3     89% -6   1014.9 1017      
Nov 30 23:55 ENE 8 1.21 Fog/Mist VV003 -2 -3     92% -5   1015.9 1018      
Nov 30 23:02 E 5 1.21 Fog/Mist OVC002 -2 -3     92% -4   1015.6        
Nov 30 22:55 ENE 5 1.61 Fog/Mist OVC002 -2 -3     92% -4   1015.6 1017.8      
Nov 30 21:55 Calm 1.61 Fog/Mist OVC002 -1 -3     88%     1015.6 1017.6      
Nov 30 20:55 WNW 8 2.41 Fog/Mist OVC003 -1 -3     88% -4   1015.9 1017.9      
Nov 30 19:55 WSW 8 1.61 Fog/Mist OVC002 -1 -2     92% -4   1015.6 1017.7      
Nov 30 19:10 WSW 9 1.61 Fog/Mist OVC002 -1 -2     92% -4   1015.2        
Nov 30 18:55 W 11 1.21 Fog/Mist OVC002 -1 -3     88% -5   1015.2 1017.3      
Nov 30 17:55 WSW 13 0.8 Fog VV003 -1 -3     88% -5   1015.2 1017.3      
Nov 30 16:55 SW 11 0.8 Fog VV002 -1 -3     88% -5   1014.9 1016.9      
Nov 30 15:55 WSW 11 0.8 Fog OVC002 -1 -3     88% -5   1014.2 1016.4      
Nov 30 15:34 WSW 8 0.8 Fog OVC002 -1 -3     88% -4   1014.2        
Nov 30 14:55 WSW 11 0.4 Fog VV002 -1 -3     88% -5   1013.9 1016.1      
Nov 30 14:47 SW 11 0.4 Fog VV002 -1 -2     92% -5   1013.9        
Nov 30 13:55 WSW 9 0.8 Fog OVC002 -1 -2     92% -4   1013.6 1015.7      
Nov 30 13:35 WSW 13 1.21 Fog/Mist OVC002 -1 -3     88% -5   1013.6        
Nov 30 12:55 WSW 9 2.41 Fog/Mist OVC003 -1 -3     88% -4   1013.2 1015.4      
Nov 30 11:55 W 11 3.22 Fog/Mist OVC003 -2 -3     92% -6   1013.2 1015.2 0   0
Nov 30 11:34 WSW 8 3.22 Light Freezing Drizzle and Fog/Mist OVC003 -2 -3     92% -5   1013.2   0    
Nov 30 11:16 W 11 2.41 Light Freezing Drizzle and Fog/Mist OVC004 -2 -3     89% -6   1013.6   0    
Nov 30 10:55 W 9 4.02 Light Freezing Drizzle and Fog/Mist OVC004 -2 -3     89% -5   1013.6 1015.7 0    
Nov 30 10:19 WSW 11 4.02 Light Freezing Drizzle and Fog/Mist OVC003 -2 -3     92% -6   1013.6   0    
Nov 30 09:55 W 11 2.41 Light Freezing Drizzle and Fog/Mist OVC002 -2 -3     92% -6   1013.2 1015.6 0    
Nov 30 09:16 W 11 1.21 Light Freezing Drizzle and Fog/Mist OVC002 -2 -3     96% -6   1012.5   0    
Nov 30 08:55 WNW 8 1.21 Fog/Mist OVC002 -2 -3     92% -5   1012.5 1014.7      
Nov 30 07:55 W 9 1.21 Fog/Mist OVC002 -2 -3     92% -6   1012.2 1014.5      
Nov 30 07:33 W 15 0.8 Fog OVC002 -2 -3     92% -7   1011.9        
Nov 30 06:55 W 15 2.82 Fog/Mist OVC003 -2 -4     88% -7   1011.5 1013.9      
Nov 30 06:50 W 18 2.82 Fog/Mist OVC003 -2 -4     86% -7   1011.5        
Nov 30 05:55 W 8 4.83 Fog/Mist OVC003 -2 -4     88% -5   1011.2 1013.3      
Nov 30 04:55 W 18 4.83 Fog/Mist OVC004 -2 -4     88% -8   1010.8 1013.2      
Nov 30 03:55 W 11 4.83 Fog/Mist OVC006 -2 -4     85% -6   1010.8 1013.2      
Nov 30 02:55 W 15 4.83 Fog/Mist BKN005 OVC012 -2 -4     88% -7   1010.8 1013.1      
Nov 30 02:32 W 11 4.83 Fog/Mist OVC004 -2 -4     88% -6   1010.8        
Nov 30 01:55 W 9 4.83 Fog/Mist OVC005 -2 -4     88% -6   1010.5 1012.6      
Nov 30 00:55 W 15 4.83 Fog/Mist OVC005 -2 -4     88% -7   1009.8 1012.1      
Nov 30 00:30 WSW 13 4.83 Clear   -2 -4     88% -7   1009.8        
Nov 29 23:55 WSW 13 4.83 Clear   -2 -4     88% -7   1009.8 1012     0
Nov 29 23:08 WSW 11 4.83 Fog/Mist OVC004 -3 -4     92% -7   1009.5        
Nov 29 22:55 WSW 13 4.83 Fog/Mist OVC005 -3 -4     92% -7   1009.5 1011.8      
Nov 29 22:40 WSW 9 4.83 Fog/Mist OVC005 -3 -4     92% -6   1009.5        
Nov 29 21:55 WSW 13 4.83 Fog/Mist OVC004 -3 -4     89% -7   1009.5 1011.6      
Nov 29 21:19 WSW 13 4.83 Fog/Mist OVC004 -3 -4     89% -7   1009.2        
Nov 29 20:55 W 13 3.22 Fog/Mist OVC005 -3 -4     89% -7   1009.2 1011.3 0 0  
Nov 29 20:33 WSW 9 3.22 Fog/Mist OVC005 -3 -4     89% -6   1008.8   0    
Nov 29 20:10 W 13 3.22 Fog/Mist OVC004 -3 -4     89% -7   1008.8   0    
Nov 29 19:55 WSW 13 2.41 Light Snow and Fog/Mist OVC004 -3 -4     89% -7   1009.2 1011.3 0    
Nov 29 18:55 SW 13 2.41 Fog/Mist OVC003 -3 -4     89% -7   1008.8 1011.2      
Nov 29 17:55 SSW 15 2.41 Fog/Mist OVC004 -3 -4     92% -8   1008.8 1011.3 0   0
Nov 29 17:23 SW 11 2.41 Fog/Mist OVC004 -3 -4     92% -8   1008.8   0    
Nov 29 16:55 SSW 15 2.41 Light Freezing Drizzle and Fog/Mist OVC004 -3 -4     92% -8   1008.8 1011.2 0    
Nov 29 16:31 S 11 2.41 Light Freezing Drizzle and Fog/Mist OVC005 -3 -4     92% -8   1008.8   0    
Nov 29 16:11 S 13 2.41 Light Snow and Fog/Mist OVC005 -3 -5     88% -8   1008.8   0    
Nov 29 15:55 S 9 2.41 Light Freezing Drizzle and Fog/Mist OVC005 -3 -5     88% -7   1008.5 1011 0    
Nov 29 15:33 S 9 2.82 Light Freezing Drizzle and Fog/Mist OVC005 -3 -5     88% -7   1008.5   0    
Nov 29 15:08 S 13 4.02 Fog/Mist OVC006 -3 -5     88% -8   1008.5        
Nov 29 14:55 S 15 4.83 Fog/Mist OVC006 -3 -6     84% -8   1008.5 1010.7 0 0  
Nov 29 14:26 S 13 3.22 Light Snow and Fog/Mist OVC006 -3 -6     84% -8   1008.1   0    
Nov 29 13:55 S 13 8.05 Light Snow and Fog/Mist OVC006 -3 -5     88% -8   1007.8 1010.3 0    
Nov 29 12:55 S 15 9.66 Light Snow and Fog/Mist OVC008 -3 -6     84% -8   1008.1 1010.6 0    
Nov 29 12:37 S 13 8.05 Light Snow and Fog/Mist OVC010 -3 -6     84% -8   1008.5   0    
Nov 29 11:55 SSE 11 2.82 Light Snow and Fog/Mist BKN007 OVC011 -3 -6     84% -8   1008.5 1010.7 0   0
Nov 29 10:55 SSE 13 9.66 Light Snow and Fog/Mist OVC007 -4 -6     88% -9   1008.8 1011.1 0    
Nov 29 09:55 S 11 6.44 Light Snow and Fog/Mist OVC006 -4 -6     88% -8   1009.2 1011.5 0    
Nov 29 09:32 SSE 11 4.02 Light Snow and Fog/Mist OVC006 -4 -6     88% -8   1008.8   0    
Nov 29 08:55 SSE 15 8.05 Light Snow and Fog/Mist BKN007 OVC045 -4 -6     88% -9   1008.8 1011 0 0  
Nov 29 08:50 SSE 11 8.05 Light Snow and Fog/Mist BKN007 OVC045 -4 -6     86% -8   1008.5   0    
Nov 29 08:38 SE 15 3.22 Light Snow and Fog/Mist BKN007 OVC045 -4 -6     85% -9   1008.5   0    
Nov 29 08:25 SSE 11 3.22 Light Snow and Fog/Mist SCT006 BKN021 OVC047 -4 -6     88% -9   1008.5   0    
Nov 29 08:01 SE 15 2.41 Light Snow and Fog/Mist BKN007 BKN024 OVC045 -4 -6     88% -10   1008.5   0    
Nov 29 07:55 SE 13 3.22 Light Snow and Fog/Mist SCT007 BKN026 OVC045 -4 -6     88% -9   1008.8 1011 0    
Nov 29 07:50 SE 15 3.22 Light Snow and Fog/Mist FEW007 BKN026 OVC045 -4 -6     86% -9   1008.8   0    
Nov 29 06:55 SE 15 1.61 Light Snow and Fog/Mist SCT007 OVC017 -4 -6     88% -10   1008.8 1011.1 0    
Nov 29 06:47 SSE 15 2.82 Light Snow and Fog/Mist BKN007 OVC027 -4 -6     88% -10   1008.8   0    
Nov 29 06:39 SE 15 4.83 Light Snow and Fog/Mist BKN007 OVC037 -4 -6     88% -10   1008.8   0    
Nov 29 06:29 SE 15 4.02 Light Snow and Fog/Mist BKN008 BKN044 OVC050 -4 -6     88% -10   1008.8   0    
Nov 29 06:18 SE 17 4.83 Light Snow and Fog/Mist BKN008 BKN044 OVC050 -4 -6     88% -10   1008.8   0    
Nov 29 05:55 SE 18 4.83 Light Snow and Fog/Mist FEW008 BKN041 OVC055 -4 -6     88% -10   1008.8 1011.1 0   0
Nov 29 05:47 SE 17 3.22 Light Snow and Fog/Mist FEW008 BKN037 OVC055 -4 -6     88% -10   1008.5   0    
Nov 29 05:22 SE 17 2.41 Light Snow and Fog/Mist SCT008 OVC033 -4 -6     88% -10   1008.5   0    
Nov 29 05:13 SE 18 3.22 Light Snow and Fog/Mist BKN008 OVC037 -4 -6     88% -10   1008.8   0    
Nov 29 05:02 SE 21 3.22 Light Snow and Fog/Mist FEW008 OVC037 -4 -6     88% -11   1008.8   0    
Nov 29 04:55 SE 21 2.41 Light Snow and Fog/Mist FEW007 OVC033 -4 -6     88% -11   1008.8 1011.1 0    
Nov 29 04:52 SSE 22 2.41 Light Snow and Fog/Mist FEW007 OVC033 -4 -6     86% -11   1008.8   0    
Nov 29 03:55 SE 18 2.01 Light Snow and Fog/Mist FEW006 OVC021 -4 -7     84% -10   1008.8 1011.2 0    
Nov 29 02:55 SE 15 1.61 Light Snow and Fog/Mist OVC021 -4 -7     84% -10   1009.5 1011.9 0 0  
Nov 29 02:02 SE 15 2.41 Light Snow OVC027 -4 -7     81% -10   1009.5   0    
Nov 29 01:55 SE 13 3.22 Light Snow OVC029 -4 -7     81% -9   1009.5 1011.9 0    
Nov 29 01:47 SE 15 3.22 Light Snow OVC033 -4 -7     81% -10   1009.5   0    
Nov 29 00:55 SE 15 8.05 Light Snow OVC038 -4 -7     81% -10   1009.5 1011.9 0    
Nov 29 00:14 SE 15 4.83 Light Snow SCT027 OVC033 -4 -8     77% -10   1009.8   0    
Nov 28 23:55 SE 18 6.44 Light Snow OVC026 -4 -8     74% -10   1009.8 1012.4 0   0
Nov 28 22:55 SE 17 14.48 Light Snow OVC026 -4 -8     74% -10   1009.8 1012.4 0    
Nov 28 22:02 SE 18 16.09 Cloudy BKN022 OVC060 -4 -8     71% -10   1009.8        
Nov 28 21:55 SE 15 16.09 Cloudy SCT021 OVC060 -4 -8     71% -9   1009.8 1012.4      
Nov 28 21:20 SE 24 16.09 Cloudy SCT028 OVC060 -4 -8     71% -11   1009.8        
Nov 28 20:55 SE 24 16.09 Cloudy OVC027 -4 -8     74% -11   1010.2 1012.7 0 0  
Nov 28 20:08 SE 26 16.09 Cloudy OVC029 -4 -8     71% -11   1010.2        
Nov 28 19:55 SE 21 16.09 Cloudy OVC030 -4 -8     71% -10   1010.5 1013.1      
Nov 28 18:55 ESE 21 16.09 Cloudy OVC035 -4 -8     71% -10   1010.2 1013.2      
Nov 28 17:55 ESE 18 16.09 Cloudy BKN044 OVC075 -4 -8     71% -10   1010.5 1013.5      
Nov 28 16:55 ESE 15 16.09 Mostly Cloudy BKN050 -4 -8     74% -10   1010.8 1013.9      
Nov 28 15:55 ESE 18 16.09 Partly Cloudy FEW010 SCT095 -4 -9     71% -10   1010.8 1013.8      
Nov 28 14:55 ESE 18 16.09 Partly Cloudy FEW010 SCT120 -5 -9     71% -11   1010.8 1013.6      
Nov 28 13:55 SE 15 16.09 Partly Cloudy FEW010 SCT120 -5 -9     71% -11   1011.2 1014.1      
Nov 28 12:55 S 13 16.09 Partly Cloudy FEW010 SCT120 -5 -9     71% -10   1011.5 1014.5      
Nov 28 11:55 S 11 16.09 Partly Cloudy FEW010 SCT120 -6 -9     75% -10   1012.5 1015.3      
Nov 28 10:55 S 9 16.09 Partly Cloudy FEW005 SCT120 -7 -9     81% -11   1012.9 1015.8      
Nov 28 10:10 S 5 16.09 Partly Cloudy FEW005 SCT120 -8 -10     84% -11   1013.2        
Nov 28 09:55 SE 9 16.09 Partly Cloudy FEW010 SCT120 -8 -11     80% -12   1013.2 1016.4      
Nov 28 08:55 SE 11 16.09 Partly Cloudy SCT120 -9 -11     84% -14   1013.2 1016.3      
Nov 28 07:55 ESE 5 16.09 Partly Cloudy SCT120 -10 -13     80% -13   1013.6 1016.8      
Nov 28 06:55 ESE 5 16.09 Mostly Clear FEW120 -12 -15     80% -16   1013.6 1016.8      
Nov 28 05:55 Calm 16.09 Clear CLR -14 -17     79%     1013.6 1016.9      
Nov 28 04:55 Calm 16.09 Clear CLR -14 -17     83%     1013.6 1016.8      
Nov 28 03:55 Calm 16.09 Clear CLR -13 -16     83%     1013.6 1016.7      
Nov 28 02:55 NNW 5 16.09 Mostly Clear FEW004 -12 -14     84% -15   1013.9 1017.2      
Nov 28 01:55 NNE 5 16.09 Mostly Cloudy BKN004 -12 -14     84% -16   1013.6 1016.8      
Nov 28 01:43 NE 5 16.09 Mostly Cloudy BKN004 -13 -16     83% -17   1013.6        
Nov 28 01:05 Calm 16.09 Mostly Cloudy BKN006 -12 -15     80%     1013.6        
Nov 28 00:55 N 5 16.09 Partly Cloudy SCT006 -12 -15     80% -16   1013.9 1016.9      
Nov 27 23:55 N 8 16.09 Clear CLR -12 -14     80% -16   1013.9 1017      
Nov 27 22:55 NW 5 16.09 Clear CLR -11 -14     80% -14   1013.6 1016.9      
Nov 27 21:55 NW 5 16.09 Clear CLR -12 -15     80% -16   1013.6 1017      
Nov 27 20:55 WNW 5 16.09 Clear CLR -11 -14     80% -14   1013.6 1016.9      
Nov 27 19:55 WNW 5 16.09 Mostly Clear FEW050 -10 -13     77% -13   1013.2 1016.6      
Nov 27 18:55 NNW 5 16.09 Cloudy OVC050 -9 -13     73% -12   1013.2 1016.4      
Nov 27 17:55 NNW 9 16.09 Mostly Cloudy BKN050 -8 -13     70% -13   1013.2 1016.4     0
Nov 27 16:55 NW 11 16.09 Mostly Cloudy BKN055 -8 -13     67% -13   1013.6 1016.4      
Nov 27 15:55 NW 15 14.48 Clear   -8 -13     67% -14   1013.2 1016.3 0    
Nov 27 14:55 NW 18 14.48 Light Snow BKN050 -7 -13     64% -14   1013.2 1016.1 0 0  
Nov 27 13:55 NNW 21 14.48 Clear   -7 -13     64% -14   1012.9 1016 0    
Nov 27 13:26 NW 21 11.27 Mostly Cloudy SCT016 BKN050 -7 -13     64% -14   1012.9   0    
Nov 27 13:02 NNW 18 9.66 Haze OVC017 -7 -13     64% -14   1013.2        
Nov 27 12:55 NW 17 11.27 Partly Cloudy SCT017 -7 -13     64% -14   1013.2 1016.1      
Nov 27 12:09 WNW 17 16.09 Partly Cloudy SCT017 -8 -13     67% -15   1013.2        
Nov 27 12:02 NNW 21 16.09 Mostly Cloudy BKN017 -8 -13     67% -15   1013.2        
Nov 27 11:55 NNW 15 16.09 Partly Cloudy SCT012 SCT100 -8 -13     67% -14   1013.2 1016.2 0   0
Nov 27 10:55 NW 18 14.48 Light Snow SCT012 BKN100 -9 -14     70% -17   1013.6 1016.7 0    
Nov 27 09:55 NW 21 11.27 Light Snow FEW013 SCT037 OVC075 -10 -14     73% -18   1013.9 1017.1 0    
Nov 27 09:19 NNW 17 11.27 Light Snow SCT029 BKN070 OVC080 -10 -14     73% -17   1014.2   0    
Nov 27 09:03 NW 18 4.02 Light Snow BKN032 BKN042 OVC055 -11 -14     77% -18   1014.2   0    
Nov 27 08:55 NW 21 4.83 Light Snow FEW015 BKN042 OVC055 -11 -14     77% -19   1014.2 1017.4 0 0  
Nov 27 08:31 NNW 18 4.83 Light Snow BKN040 OVC055 -11 -14     77% -18   1014.2   0    
Nov 27 08:22 NW 22 4.02 Light Snow OVC042 -11 -14     77% -19   1014.2   0    
Nov 27 08:10 NW 17 6.44 Light Snow BKN048 OVC065 -11 -14     77% -18   1014.6   0    
Nov 27 07:55 NW 17 4.02 Light Snow BKN038 OVC070 -11 -14     77% -18   1014.2 1017.5 0    
Nov 27 07:34 NW 17 4.02 Light Snow BKN041 OVC070 -11 -14     74% -18   1014.6   0    
Nov 27 06:55 NW 21 9.66 Light Snow BKN055 OVC070 -11 -14     77% -19   1014.2 1017.6 0    
Nov 27 05:55 NW 21 9.66 Light Snow BKN044 OVC065 -11 -14     77% -19   1014.2 1017.5 0   0
Nov 27 05:05 NW 18 9.66 Light Snow SCT015 OVC070 -11 -14     77% -18   1014.2   0    
Nov 27 04:55 NW 18 8.05 Light Snow BKN015 OVC075 -11 -14     77% -18   1014.2 1017.5 0    
Nov 27 03:55 NW 21 11.27 Light Snow SCT032 BKN047 BKN055 -11 -14     77% -19   1014.2 1017.3 0    
Nov 27 01:55 NW 17 11.27 Light Snow FEW010 BKN016 -11 -14     77% -18   1014.6 1017.7 0    
Nov 27 00:55 NW 18 12.87 Light Snow FEW010 BKN027 OVC085 -11 -14     77% -18   1014.6 1017.6 0    
Nov 26 23:55 NW 22 12.87 Light Snow OVC075 -10 -14     73% -18   1014.6 1017.9 0   0
Nov 26 22:55 NNW 28 14.48 Light Snow OVC065 -10 -14     73% -19   1014.6 1017.6 0    
Nov 26 22:06 NNW 26 9.66 Light Snow FEW009 OVC065 -10 -14     73% -19   1014.9   0    
Nov 26 21:55 NW 28 16.09 Cloudy FEW010 OVC065 -10 -13     77% -19   1014.9 1018.1      
Nov 26 20:55 NW 21 16.09 Cloudy OVC055 -11 -14     77% -19   1015.6 1018.9      
Nov 26 19:55 NW 18 16.09 Cloudy OVC055 -11 -14     74% -18   1016.3 1019.6      
Nov 26 18:55 NW 24 16.09 Mostly Clear FEW019 -11 -15     70% -19   1016.6 1020      
Nov 26 17:55 NW 17 16.09 Mostly Clear FEW019 -9 -14     70% -16   1016.6 1020      
Nov 26 17:17 NW 22 16.09 Partly Cloudy SCT019 -9 -14     67% -17   1016.6        
Nov 26 16:55 NW 17 16.09 Mostly Cloudy SCT021 BKN025 -8 -14     64% -15   1016.6 1019.7      
Nov 26 16:02 NW 18 16.09 Partly Cloudy FEW019 SCT024 -8 -14     64% -15   1016.3        
Nov 26 15:55 NW 17 16.09 Mostly Cloudy BKN022 -8 -14     64% -15   1016.3 1019.4      
Nov 26 15:33 NW 18 16.09 Mostly Cloudy BKN022 -8 -13     65% -15   1016.3        
Nov 26 14:55 NNW 28 16.09 Partly Cloudy SCT048 -7 -13     62% -16   1015.9 1019.1      
Nov 26 13:55 NNW 21 16.09 Partly Cloudy SCT047 -8 -13     67% -16   1015.9 1019.1      
Nov 26 12:55 NNW 28 16.09 Partly Cloudy FEW010 SCT045 -9 -14     67% -18   1015.9 1019.2      
Nov 26 11:55 NNW 26 16.09 Partly Cloudy FEW010 SCT045 -9 -14     67% -17   1016.3 1019.4     0
Nov 26 10:55 NNW 30 16.09 Partly Cloudy FEW010 SCT045 -9 -14     70% -19   1016.3 1019.6 0    
Nov 26 09:55 NNW 22 12.87 Partly Cloudy FEW010 SCT040 -11 -14     77% -20   1016.9 1020.2      
Nov 26 08:55 NNW 26 16.09 Mostly Clear FEW010 -12 -15     76% -21   1016.9 1020.1   0  
Nov 26 07:55 NNW 17 16.09 Mostly Clear FEW010 -12 -15     80% -20   1016.9 1020.4      
Nov 26 06:55 NW 22 16.09 Mostly Clear FEW010 -12 -15     80% -21   1016.6 1019.7 0    
Nov 26 05:55 NNW 28 16.09 Mostly Clear FEW015 -12 -14     80% -21   1016.3 1019.5      
Nov 26 04:55 NW 21 16.09 Clear CLR -12 -14     84% -20   1016.6 1019.8      
Nov 26 03:55 NNW 18 16.09 Clear CLR -11 -14     80% -19   1016.6 1019.8      
Nov 26 02:55 NNW 17 16.09 Clear CLR -12 -14     84% -19   1017.3 1020.4      
Nov 26 01:55 NNW 18 16.09 Clear CLR -12 -14     84% -20   1017.3 1020.3      
Nov 26 00:55 NNW 15 16.09 Clear CLR -12 -14     84% -19   1017.3 1020.6      
Nov 25 23:55 NW 13 16.09 Clear CLR -11 -14     80% -18   1017.6 1020.9     0
Nov 25 22:55 NNW 13 16.09 Clear CLR -11 -14     77% -17   1018 1020.8      
Nov 25 21:55 N 21 16.09 Clear CLR -11 -14     77% -19   1017.6 1020.8      
Nov 25 21:06 N 22 16.09 Mostly Clear FEW008 -10 -14     73% -18   1017.6        
Nov 25 20:55 N 22 16.09 Mostly Clear FEW010 -10 -14     73% -18   1017.6 1020.5   0  
Nov 25 20:42 N 24 16.09 Partly Cloudy SCT014 -10 -14     73% -19   1017.6        
Nov 25 20:34 N 22 16.09 Mostly Cloudy BKN014 -10 -14     73% -18   1017.6        
Nov 25 20:18 N 26 16.09 Cloudy OVC015 -10 -14     73% -19   1017.6        
Nov 25 19:55 N 15 14.48 Cloudy OVC014 -10 -14     73% -17   1017.6 1020.6 0    
Nov 25 19:19 NNW 24 16.09 Cloudy OVC014 -10 -14     73% -19   1017.3        
Nov 25 19:02 NNW 24 16.09 Cloudy OVC017 -9 -14     70% -18   1017.3        
Nov 25 18:55 NNW 26 16.09 Mostly Clear FEW021 -9 -14     70% -18   1017.3 1020.4      
Nov 25 17:55 N 15 16.09 Clear   -9 -14     67% -15   1017.6 1020.3     0
Nov 25 17:23 N 17 16.09 Partly Cloudy SCT021 -9 -14     67% -16   1017.3        
Nov 25 16:55 N 17 16.09 Mostly Cloudy BKN021 -8 -13     67% -15   1017.3 1020.2      
Nov 25 15:55 N 24 16.09 Mostly Cloudy BKN021 -8 -13     65% -16   1017.6 1020.3      
Nov 25 14:55 NNW 24 16.09 Mostly Cloudy BKN023 -7 -13     64% -15   1016.9 1019.6   0  
Nov 25 14:13 NNW 21 16.09 Mostly Cloudy BKN022 -7 -13     62% -14   1016.9        
Nov 25 14:02 NW 22 16.09 Partly Cloudy SCT022 -7 -13     62% -15   1017.3        
Nov 25 13:55 NNW 17 16.09 Mostly Cloudy BKN022 -7 -13     64% -14   1016.9 1019.7 0    
May 13 21:55 WSW 15 16.09 Mostly Cloudy BKN120 18 6     43%     1011.5 1011.7      
May 13 09:55 W 17 16.09 Cloudy OVC100 16 -2     30%     1016.6 1017.2      
May 13 07:55 WNW 13 16.09 Mostly Clear FEW120 12 -1     41%     1016.9 1017.5      
May 12 10:55 E 9 16.09 Clear CLR 14 -6     24%     1021.7 1022.7      
Notice The following observation data may not be complete
May 12 07:55 ENE 8 16.09 Clear CLR   -4      %     1021 1022.2      
May 12 03:55 N 5 16.09 Clear CLR -1 -6     69% -3   1019.7 1021      
Jun 11 10:55   6.44 Rain and Fog/Mist OVC095 15 14     93%     1007.1   0    
Jun 11 06:55 Calm 16.09 Partly Cloudy SCT120 16 14     87%     1008.1 1007.8      
Notice The following observation data may not be complete
Jun 10 05:21   16.09 Mostly Cloudy SCT008 SCT042 BKN075   16      %     999.3   3    
Jun 08 23:55 ENE 8 16.09 Mostly Clear FEW100 14 12     87%     1011.9 1011.8      
Jun 08 03:55 Calm 16.09 Mostly Clear FEW120 13 11     87%     1012.5 1012.4      
Jun 07 21:24 ESE 11 16.09 Thunderstorms SCT050 BKN080 BKN120 19 8     48%     1014.9        
Jun 07 13:55 S 17 16.09 Mostly Clear FEW120 26 11     38%   26 1017.6 1017.6      
Jun 06 01:55 Calm 16.09 Clear CLR 7 4     80%     1020 1020.5      
Jun 05 17:55 E 21 16.09 Clear CLR 20 8     45%     1018 1018.3      
Jun 05 14:55 E 21 16.09 Mostly Clear FEW045 21 9     49%     1018.3 1018.6